Regional Weather Roundup
Issued by NWS Grand Forks, ND

Home | Current Version | Previous Version | Graphics & Text | Print | Product List | Glossary On
Versions: 1 2 3 4 5 6 7 8 9 10 11 12 13 14 15 16 17 18 19 20 21 22 23 24 25 26 27 28 29 30 31 32 33 34 35 36 37 38 39 40 41 42 43 44 45 46 47 48 49 50
000
ASUS43 KFGF 060831
RWRFGF
PRAIRIE TO PINES  WEATHER ROUNDUP
NATIONAL WEATHER SERVICE EASTERN NORTH DAKOTA/GRAND FORKS ND
200 AM CST FRI MAR 06 2015

 **SATELLITE DATA USED TO AUGMENT SKY COVER AT AUTOMATED STATIONS**
 *****  WEATHER ACROSS EASTERN NORTH DAKOTA  *****

CITY           SKY/WX    TMP DP  RH WIND       PRES   REMARKS
GRAND FORKS    CLEAR     12   7  80 SW9       29.95F WCI   0
GRAND FRKS AFB CLEAR     18   9  69 NW6       29.95R WCI  10
GRAND FRKS NWS   N/A     14 N/A N/A W6          N/A  WCI   5
DEVILS LAKE    CLEAR     16   9  73 W12       29.96R WCI   3
FARGO          PTCLDY    16   7  67 S13       29.98F WCI   2
WAHPETON ARPT  CLOUDY    12   5  73 S7        30.02F WCI   2
$$

 ***** WEATHER ACROSS CENTRAL AND WESTERN NORTH DAKOTA  *****

CITY           SKY/WX    TMP DP  RH WIND       PRES   REMARKS
BISMARCK       CLEAR     20  12  71 NW7       30.03R WCI  11
MINOT          CLEAR     22  14  71 W17       30.00R WCI   8
JAMESTOWN      CLEAR     20  10  65 W10       29.96R WCI   9
MINOT AFB      CLEAR     19  16  88 NW15      29.99S WCI   5
GARRISON         N/A     19  13  77 NW12      30.01R WCI   7
WILLISTON      CLEAR     24  16  71 N5        30.04S WCI  18
DICKINSON      CLEAR     24  13  62 W9        30.01R WCI  14
HETTINGER      CLOUDY    25  14  63 W9        30.05S WCI  15
$$

 *****  OTHER AIRPORT OBSERVATIONS IN OUR AREA  *****

CITY           SKY/WX    TMP DP  RH WIND       PRES   REMARKS
WALHALLA         N/A     18  10  73 W8        29.95R WCI   7
GRAFTON AIRPOR NOT AVBL
VALLEY CITY AR FAIR      18  14  86 W12       29.97R WCI   5
CANDO          FAIR       7   5  92 W10       29.97R WCI  -8
CAVALIER APRT  FAIR      19  10  68 NW12      29.95R WCI   7
GWINNER        SUNNY     19  12  73 SW13      30.01S WCI   7
ROLLA          FAIR      19  10  68 NW15G22   29.95R WCI   5
 ***** THE ABOVE OBSERVATIONS ARE NON NWS ARE NOT QUALITY
       CONTROLLED AND MAY MIS-REPORT RAIN FOR SNOW...
$$

  *****  WEATHER ACROSS NORTHERN MINNESOTA  *****

CITY           SKY/WX    TMP DP  RH WIND       PRES   REMARKS
FLAG ISLAND    PTCLDY    12   7  79 SW9       29.85S WCI   0
WARROAD        CLEAR     16   9  73 SW8       29.88S WCI   5
ROSEAU         CLEAR     18  10  73 SW12      29.89R WCI   5
HALLOCK        CLEAR     14   9  79 NW5       29.93R WCI   6
THF RVR FALLS  PTCLDY    14  10  85 SW12      29.92F WCI   0
BAUDETTE       PTCLDY    14   5  67 SW9       29.87F WCI   2
WASKISH        MOCLDY    18   9  68 S9        29.90F WCI   6
CROOKSTON      CLEAR     14  10  85 SW10      29.96F WCI   1
STEPHEN NDAWN    N/A     12   9  85 SW6         N/A  WCI   3
GREENBUSH NDAW   N/A     14   9  79 SW9         N/A  WCI   2
$$
  *****  WEATHER ACROSS CENTRAL AND WEST MINNESOTA  *****

CITY           SKY/WX    TMP DP  RH WIND       PRES   REMARKS
FOSSTON        CLOUDY    14   9  79 S15       29.94F WCI  -1
BEMIDJI        MOCLDY    14   5  68 SW10      29.93F WCI   1
PARK RAPIDS    CLOUDY    10   3  73 S5        29.98F WCI   2
ELBOW LAKE     CLOUDY    12   6  77 S14       30.02F WCI  -3
WADENA         CLOUDY    10   3  72 S8        30.00F WCI  -1
DETROIT LAKES  PTCLDY    19  10  68 S9        29.98F WCI   9
MOORHEAD       CLOUDY    16  10  79 S12       29.99F WCI   3
FERGUS FALLS   CLOUDY    16   5  62 S10       30.06F WCI   3
MORRIS MN      MOCLDY    10   5  79 SE10      30.04F WCI  -3
STAPLES        CLOUDY    10   5  79 S14       30.02F WCI  -5
$$
  *****  WEATHER ELSEWHERE ACROSS MINNESOTA  *****

CITY           SKY/WX    TMP DP  RH WIND       PRES   REMARKS
DULUTH         CLEAR      7  -2  66 SW16      30.04F WCI -11
INTRNTL FALLS  CLOUDY    12   2  64 SW8       29.91F WCI   0
ELY            CLOUDY     7   0  72 SW12G17   29.97F WCI  -9
CLOQUET        CLEAR      7   0  72 S14G20    30.04F WCI -10
WHEATON        MOCLDY    12   5  73 S10       30.05F WCI  -1
BRAINERD       PTCLDY     8   1  73 S13       30.05F WCI  -8
HIBBING        MOCLDY     3  -3  76 S3        30.00F
ALEXANDRIA     CLEAR     13   4  67 S15       30.02F WCI  -3
SAINT CLOUD    FAIR       9   2  73 S12       30.12F WCI  -6
MINNEAPOLIS    CLOUDY    10   2  69 SE7       30.21F WCI  -1
$$

  *****  WEATHER ACROSS SOUTH DAKOTA  *****

CITY           SKY/WX    TMP DP  RH WIND       PRES   REMARKS
SIOUX FALLS    CLEAR     21   8  57 SW5       30.11F WCI  15
BROOKINGS      NOT AVBL
WATERTOWN      CLEAR     12   4  70 S9        30.05F WCI   0
HURON          CLEAR     13   6  74 SE3       30.09S
SISSETON       NOT AVBL
ABERDEEN       MOCLDY    13   7  77 S8        30.05F WCI   2
MITCHELL       CLEAR     19   8  62 SW7       30.11S WCI  10
PIERRE         CLOUDY    27  16  63 SW7       30.09F WCI  19
MOBRIDGE       PTCLDY    20  13  74 SE7       30.02S WCI  11
RAPID CITY     PTCLDY    27  15  61 SW3       30.11S
$$

  *****  SOME WEATHER IN NEARBY STATES *****

CITY           SKY/WX    TMP DP  RH WIND       PRES   REMARKS
GLASGOW MT     PTCLDY    32  19  58 W6        30.05F
GREAT FALLS MT CLEAR     32  16  51 SW12      30.12S WCI  23
CHEYENNE WY    CLOUDY    36  12  37 W22G30    30.22S
SCOTTSBLUFF NE MOCLDY    28  20  71 NW3       30.22R
OMAHA NE       PTCLDY    25  12  58 S18       30.26F WCI  11
DES MOINES IA  CLOUDY    18   6  59 S13       30.34F WCI   5
DAVENPORT IA   PTCLDY     2  -5  72 S9        30.47F WCI -13
CHICAGO IL     PTCLDY     5  -4  66 SW5       30.50S WCI  -4
EAU CLAIRE WI  PTCLDY     2  -5  72 S7        30.27F WCI -11
LA CROSSE WI   PTCLDY     5  -4  66 S13       30.37F WCI -12
$$

  *****  SOME NATIONAL WEATHER *****

CITY           SKY/WX    TMP DP  RH WIND       PRES   REMARKS
LA GUARDIA NY  PTCLDY    16   3  56 N13G21    30.42R WCI   2
RALEIGH NC     MOCLDY    28  19  69 NE9G17    30.39R WCI  20
ATLANTA GA     CLOUDY    28  21  75 N15       30.32R WCI  16
NEW ORLEANS LA PTCLDY    33  23  66 N20       30.44F WCI  21
OKLAHOMA CITY  CLEAR     27  17  66 S7        30.49S WCI  19
ALBUQUERQUE NM CLEAR     37  11  34 N12       30.37F
SALT LAKE CITY PTCLDY    34  23  64 SE8       30.42S
LOS ANGELES CA CLEAR     58  29  33 E3        30.16S
BOISE ID       CLEAR     36  20  52 SE6       30.37F
SEATTLE WA     MOCLDY    44  36  73 N5        30.39S
$$

*** WEATHER ACROSS MANITOBA...SASKATCHEWAN AND ONTARIO ***
                ***ONTARIO***

CITY           SKY/WX    TMP DP  RH WIND       PRES   REMARKS
GERALDTON      MOCLDY     5  -8  56 SW13      29.91F WCI -12
THUNDER BAY    PTCLDY     5  -6  61 W6        30.06F WCI  -6
SIOUX LOOKOUT  MOCLDY    12   1  62 SW10G18   29.82F WCI  -1
TORONTO        CLEAR      1  -4  78 SW6       30.47F WCI -10
BIG TROUT LK   FLURRIES  10   5  79 W7        29.60F WCI   0
PICKLE LAKE    NOT AVBL
DRYDEN         PTCLDY    10   1  67 SW14G20   29.82F WCI  -5
KENORA         PTCLDY    10   5  79 SW8       29.82  WCI  -1
$$
                *** MANITOBA***

CITY           SKY/WX    TMP DP  RH WIND       PRES   REMARKS
BRANDON        CLEAR      5   1  85 W12       29.96R WCI -11
DAUPHIN        CLEAR     14   9  79 W13       29.94R WCI   0
ISLAND LAKE    FLURRIES   7  -2  66 W10       29.70S WCI  -8
PILOT MOUND      N/A     14   9  79 NW8         N/A  WCI   3
THE PAS        CLEAR     12   7  79 W6        29.85S WCI   3
THOMPSON       CLEAR      3  -4  72 W6        29.73R WCI  -8
WINNIPEG       CLEAR      7   1  78 W10       29.92R WCI  -8
LYNN LAKE      CLEAR      5   0  78 W5        29.75S WCI  -4
CHURCHILL      CRYSTALS  -9 -13  84 NW12      29.68R WCI -29
GILLAM         FLURRIES   7  -2  66 NW14G22   29.65R WCI -10
$$
                ***SASKATCHEWAN***

CITY           SKY/WX    TMP DP  RH WIND       PRES   REMARKS
ESTEVAN        PTCLDY    12   9  85 NW12      30.02R WCI  -2
KINDERSLEY     CLOUDY    23  21  93 S8        29.96F WCI  14
LLOYDMINSTER   CLOUDY    32  23  69 W12       29.87F WCI  23
PRINCE ALBERT  NOT AVBL
REGINA         CLEAR      7   5  92 W6        30.01S WCI  -3
YORKTON        CLEAR     14   9  79 W7        29.96R WCI   4
N. BATTLEFORD  MOCLDY    19  16  86 S7        29.94F WCI  10
LA RONGE       CLOUDY    23  14  68 CALM      29.81F
SASKATOON      PTCLDY    12   9  85 S8        29.97F WCI   1
SWIFT CURRENT  MOCLDY    23  19  86 SW12      29.97F WCI  12
$$
NOTE: THESE ARE AUTOMATED STATIONS WITH LIMITED QUALITY CONTROL
      "FAIR" INDICATES FEW OR NO CLOUDS BELOW 12,000 FEET WITH NO
      SIGNIFICANT WEATHER AND/OR OBSTRUCTIONS TO VISIBILITY.
      SKY/WX - SKY CONDITION AND SIGNIFICANT WEATHER.
      TMP - AIR TEMPERATURE.    DP   - DEWPOINT TEMPERATURE.
      RH  - RELATIVE HUMIDITY.  PRES - PRESSURE.
      HX  - HEAT INDEX.         WCI  - WIND CHILL INDEX.
$



USA.gov is the U.S. government's official web portal to all federal, state and local government web resources and services.